FW9813 Weather Reports


Display with metric or nautical units.
time (UTC)temp
F
wind
direction
speed
MPH
gust
MPH
rain 1hr
in
rain 24hr
in
rain mn
in
humidity
%
barometer
mb
20260902181552 82 5 1.0 4.0 0.00 0.00 0.00 56 1012.7
20260902180051 81 360 1.0 6.0 0.00 0.00 0.00 56 1012.9
20260902174547 80 323 1.0 4.0 0.00 0.00 0.00 59 1013.0
20260902173056 80 323 1.0 5.0 0.00 0.00 0.00 60 1013.1
20260902171558 79 340 1.0 5.0 0.00 0.00 0.00 62 1013.4
20260902170049 78 41 1.0 5.0 0.00 0.00 0.00 62 1013.3
20260902164550 77 333 1.0 5.0 0.00 0.00 0.00 63 1013.4
20260902163107 76 211 2.0 5.0 0.00 0.00 0.00 67 1013.4
20260902161550 76 340 1.0 4.0 0.00 0.00 0.00 67 1013.4
20260902154557 76 248 2.0 5.0 0.00 0.00 0.00 68 1013.4
20260902153050 75 0 0.0 2.0 0.00 0.00 0.00 69 1013.3
20260902151553 74 0 0.0 3.0 0.00 0.00 0.00 69 1013.2
20260902150046 74 0 0.0 2.0 0.00 0.00 0.00 72 1013.4
20260902144554 74 139 0.0 4.0 0.00 0.00 0.00 72 1013.3
20260902143052 73 128 1.0 4.0 0.00 0.00 0.00 72 1013.2
20260902141554 73 352 1.0 3.0 0.00 0.00 0.00 73 1013.2
20260902140047 72 0 0.0 1.0 0.00 0.00 0.00 74 1013.6
20260902134558 71 314 1.0 2.0 0.00 0.00 0.00 75 1013.7
20260902133047 69 0 0.0 2.0 0.00 0.00 0.00 80 1013.6
20260902131606 67 0 0.0 2.0 0.00 0.00 0.00 83 1013.5
20260902130047 66 136 0.0 1.0 0.00 0.00 0.00 84 1013.4
20260902124554 66 0 0.0 0.0 0.00 0.00 0.00 85 1013.7
20260902123105 66 0 0.0 0.0 0.00 0.00 0.00 85 1013.7
20260902121556 66 0 0.0 0.0 0.00 0.00 0.00 85 1013.5
20260902120100 66 0 0.0 1.0 0.00 0.00 0.00 84 1013.4
20260902114553 67 0 0.0 1.0 0.00 0.00 0.00 84 1013.6
20260902113051 67 0 0.0 0.0 0.00 0.00 0.00 83 1013.7
20260902111555 67 0 0.0 0.0 0.00 0.00 0.00 82 1013.5
20260902110047 67 0 0.0 0.0 0.00 0.00 0.00 81 1013.6
20260902104553 68 0 0.0 2.0 0.00 0.00 0.00 80 1013.6
20260902103048 68 0 0.0 0.0 0.00 0.00 0.00 80 1013.7
20260902101546 68 0 0.0 0.0 0.00 0.00 0.00 79 1013.5
20260902100052 68 0 0.0 1.0 0.00 0.00 0.00 78 1012.9
20260902094552 68 0 0.0 0.0 0.00 0.00 0.00 79 1012.8
20260902093046 68 0 0.0 0.0 0.00 0.00 0.00 80 1012.6
20260902091546 68 0 0.0 1.0 0.00 0.00 0.00 79 1012.4
20260902090051 68 0 0.0 0.0 0.00 0.00 0.00 79 1012.4
20260902084548 68 0 0.0 0.0 0.00 0.00 0.00 79 1012.6
20260902083045 68 0 0.0 0.0 0.00 0.00 0.00 78 1012.9
20260902081550 68 0 0.0 2.0 0.00 0.00 0.00 78 1013.1
20260902080050 68 0 0.0 2.0 0.00 0.00 0.00 80 1013.4
20260902074552 68 136 0.0 1.0 0.00 0.00 0.00 80 1012.9
20260902073056 68 0 0.0 0.0 0.00 0.00 0.00 80 1013.1
20260902071547 69 0 0.0 0.0 0.00 0.00 0.00 78 1013.2
20260902070048 69 0 0.0 1.0 0.00 0.00 0.00 76 1013.2
20260902064548 68 0 0.0 0.0 0.00 0.00 0.00 77 1013.9
20260902063100 68 0 0.0 0.0 0.00 0.00 0.00 79 1013.9
20260902061549 68 0 0.0 0.0 0.00 0.00 0.00 78 1013.3
20260902060048 69 0 0.0 0.0 0.00 0.00 0.00 77 1013.0
20260902054548 69 0 0.0 0.0 0.00 0.00 0.00 76 1013.1
20260902053056 69 0 0.0 0.0 0.00 0.00 0.00 75 1013.6
20260902051551 70 0 0.0 0.0 0.00 0.00 0.00 73 1014.0
20260902050100 70 0 0.0 1.0 0.00 0.00 0.00 72 1013.9
20260902044551 70 0 0.0 0.0 0.00 0.00 0.00 72 1013.7
20260902043055 70 0 0.0 0.0 0.00 0.00 0.00 74 1013.6
20260902041550 70 0 0.0 0.0 0.00 0.00 0.00 76 1013.1
20260902040049 70 0 0.0 0.0 0.00 0.00 0.00 76 1013.2
20260902034547 71 0 0.0 0.0 0.00 0.00 0.00 75 1013.6
20260902033057 71 0 0.0 0.0 0.00 0.00 0.00 74 1013.6
20260902031602 71 0 0.0 0.0 0.00 0.00 0.00 73 1013.8
20260902030045 71 0 0.0 0.0 0.00 0.00 0.00 72 1013.8
20260902024555 72 0 0.0 0.0 0.00 0.00 0.00 71 1013.7
20260902023055 72 0 0.0 0.0 0.00 0.00 0.00 68 1013.5
20260902021559 73 0 0.0 0.0 0.00 0.00 0.00 65 1013.5
20260902020053 74 0 0.0 0.0 0.00 0.00 0.00 64 1013.4
20260902014546 75 0 0.0 0.0 0.00 0.00 0.00 62 1013.4
20260902013054 76 0 0.0 0.0 0.00 0.00 0.00 61 1013.2
20260902011549 77 0 0.0 0.0 0.00 0.00 0.00 59 1013.1
20260902010046 78 0 0.0 0.0 0.00 0.00 0.00 57 1013.0
20260902004545 79 0 0.0 1.0 0.00 0.00 0.00 55 1012.9
20260902003054 80 0 0.0 0.0 0.00 0.00 0.00 54 1013.1
20260902001557 81 0 0.0 1.0 0.00 0.00 0.00 52 1013.3
20260902000055 81 0 0.0 1.0 0.00 0.00 0.00 50 1013.4
20260901234544 82 0 0.0 3.0 0.00 0.00 0.00 49 1013.4
20260901233055 83 0 1.0 3.0 0.00 0.00 0.00 47 1013.5
20260901231547 83 0 0.0 3.0 0.00 0.00 0.00 47 1013.4
20260901224552 84 153 0.0 3.0 0.00 0.00 0.00 48 1013.5
20260901223101 84 0 0.0 2.0 0.00 0.00 0.00 47 1013.5
20260901221549 84 0 0.0 3.0 0.00 0.00 0.00 46 1013.4
20260901220106 84 0 0.0 5.0 0.00 0.00 0.00 43 1013.1
20260901214552 85 146 0.0 6.0 0.00 0.00 0.00 41 1013.2
20260901213050 85 112 0.0 3.0 0.00 0.00 0.00 39 1013.1
20260901211547 86 113 0.0 1.0 0.00 0.00 0.00 39 1013.0
20260901210047 86 111 0.0 3.0 0.00 0.00 0.00 39 1013.0
20260901204546 87 130 0.0 5.0 0.00 0.00 0.00 38 1013.0
20260901203054 88 123 0.0 4.0 0.00 0.00 0.00 39 1013.3
20260901201553 89 110 1.0 6.0 0.00 0.00 0.00 37 1013.4
20260901200047 88 0 0.0 3.0 0.00 0.00 0.00 38 1013.4
20260901194558 87 148 0.0 3.0 0.00 0.00 0.00 39 1013.5
20260901193052 85 339 1.0 3.0 0.00 0.00 0.00 40 1013.6
20260901191605 85 352 1.0 4.0 0.00 0.00 0.00 42 1013.6
20260901190057 86 209 2.0 9.0 0.00 0.00 0.00 39 1013.8
20260901184607 84 61 0.0 2.0 0.00 0.00 0.00 41 1013.8
20260901183053 84 184 1.0 5.0 0.00 0.00 0.00 43 1014.1